Location: Augirein
(42.9320°N, 0.9181°E)
Time: 16:50:05
(UTC+00:00)

Cosmos 1151 Rocket - Pass Details

Date: 20 June 2021
Orbit: 592 x 615 km, 82.5° (Epoch: 03 August)

Event Time Altitude Azimuth Distance (km) Brightness Sun altitude
Rises 02:49:13 0° 349° (NNW) 2,843 7.1 -12.8°
Reaches altitude 10° 02:51:26 10° 346° (NNW) 1,935 6.1 -12.6°
Maximum altitude 02:55:40 67° 265° (W) 648 3.0 -12.0°
Drops below altitude 10° 02:59:52 10° 183° (S) 1,918 5.1 -11.5°
Enters shadow 02:59:57 10° 183° (S) 1,948 5.2 -11.5°
